CAPE
0 0 0 0 0 0 0 0 0 0 0 0 0 0 0 0 0 0 0 0 0 0 0 0 0 0 0 0 0 12 11 4 1 15 11 16 25 36 148 55 209 242 22 11 68
2 2 1 1 1 0 0 0 0 0 0 0 0 0 0 0 0 0 0 0 0 0 0 0 0 0 0 0 0 13 0 0 42 22 6 17 16 74 121 162 63 58 23 61 77
2 3 3 3 3 1 0 0 0 0 0 0 0 0 0 0 0 0 0 0 0 0 0 0 0 0 0 0 0 6 5 0 93 41 20 27 15 41 175 155 73 15 0 34 85
3 3 3 2 2 1 0 0 0 0 0 0 0 0 0 0 0 0 0 0 0 0 0 0 0 0 0 0 0 0 0 0 52 121 55 1 24 0 48 178 86 8 51 50 69
2 2 1 1 1 1 0 0 0 0 0 0 0 0 0 0 0 0 0 0 0 0 0 0 0 0 0 0 0 0 0 0 25 22 19 51 114 70 119 330 95 34 65 37 48
1 1 1 0 0 1 1 0 0 0 0 0 0 0 0 0 0 0 0 0 0 0 0 0 0 0 0 0 0 0 0 0 0 21 153 70 38 44 170 336 129 32 20 27 37
1 0 2 0 0 0 0 0 0 0 0 0 0 0 0 0 0 0 0 0 0 0 0 0 0 0 0 0 0 0 0 0 0 6 86 198 80 22 109 149 135 42 0 26 65
2 1 1 1 0 0 0 0 0 0 0 0 0 0 0 0 0 0 0 0 0 0 0 0 0 0 0 0 0 0 0 0 11 123 149 141 24 146 213 216 237 77 34 0 37
0 0 0 0 0 0 0 0 0 0 0 0 0 0 0 0 0 0 0 0 0 0 0 0 0 0 0 0 0 0 0 0 0 220 270 240 39 178 193 246 308 123 82 50 35
0 0 0 0 0 0 0 0 0 0 0 0 0 0 0 0 0 0 0 0 0 0 0 0 0 0 0 0 0 0 0 0 0 14 214 210 3 224 330 427 368 302 133 112 67
0 0 0 0 0 0 0 0 0 0 0 0 0 0 0 0 0 0 0 0 0 0 0 0 0 0 0 0 0 0 0 0 0 0 22 0 0 0 224 402 365 361 212 157 108
0 0 0 0 0 0 0 0 0 0 0 0 0 0 0 0 0 0 0 0 0 0 0 0 0 0 0 0 0 0 0 0 0 0 0 0 0 1 169 409 465 332 267 195 139
0 0 0 0 0 0 0 0 0 0 0 0 0 0 0 0 0 0 0 0 0 0 0 0 0 0 0 0 0 0 0 0 0 0 3 2 0 27 133 354 499 407 269 125 108
1 0 0 0 0 0 0 0 0 0 0 0 0 0 0 0 0 0 0 0 0 0 0 0 0 0 0 0 0 0 0 0 0 0 0 0 0 0 174 193 480 463 318 235 118
1 0 0 0 0 0 0 0 0 0 0 0 0 0 0 0 0 0 0 0 0 0 0 0 0 0 0 0 0 0 0 0 0 0 0 0 0 0 82 212 162 419 427 264 212
0 0 0 0 0 0 0 0 0 0 0 0 0 0 0 0 0 0 0 0 0 0 0 0 0 0 0 0 0 0 0 0 0 0 0 0 0 0 0 0 74 62 114 260 220
0 0 0 0 0 0 0 0 0 0 0 0 0 0 0 0 0 0 0 0 0 0 0 0 0 0 0 0 0 0 0 0 0 0 0 0 0 0 0 0 0 0 0 41 158
0 0 0 0 0 0 0 0 0 0 0 0 0 0 0 0 0 0 0 0 0 0 0 0 0 0 0 0 0 0 0 0 0 0 0 0 0 0 0 0 0 0 0 0 20
0 0 0 0 0 0 0 0 0 0 0 0 0 0 0 0 0 0 0 0 0 0 0 0 0 0 0 0 0 0 0 0 0 0 0 0 0 0 0 0 0 0 0 0 0
0 0 0 0 0 0 0 0 0 0 0 0 0 0 0 0 0 0 0 0 0 0 0 0 0 0 0 0 0 0 0 0 0 0 0 0 0 0 0 0 0 0 0 0 0
0 0 0 0 0 0 0 0 0 0 0 0 0 0 0 0 0 0 0 0 0 0 0 0 0 0 0 0 0 0 0 0 0 0 0 0 0 0 0 1 1 2 1 1 10
0 0 0 0 0 0 0 0 0 0 0 0 0 0 0 0 0 0 0 0 0 0 0 0 0 0 0 0 0 0 0 0 0 0 0 0 0 0 0 0 3 0 1 2 2
0 0 0 0 0 0 0 0 0 0 0 0 0 0 0 0 0 0 0 0 0 0 0 0 0 0 0 0 0 0 0 0 0 0 0 0 0 0 0 0 4 5 0 0 0
0 0 0 0 0 0 0 0 0 0 0 0 0 0 0 0 0 0 0 0 0 0 0 0 0 0 0 0 0 0 0 0 0 0 0 0 0 0 0 1 0 3 2 0 0
0 0 0 0 0 0 0 0 0 0 0 0 0 0 0 0 0 0 0 0 0 0 0 0 0 0 0 0 0 0 0 0 0 0 0 0 0 0 0 0 0 0 1 0 0
0 0 0 0 0 0 0 0 0 0 0 0 0 0 0 0 0 0 0 0 0 0 0 0 0 0 0 0 0 0 0 0 0 0 0 0 0 1 0 0 0 0 0 0 0
0 0 0 0 0 0 0 0 0 0 0 0 0 0 0 0 0 0 0 0 0 0 0 0 0 0 0 0 0 0 0 0 0 0 0 0 0 0 0 0 0 0 0 0 0
CIN
-0 -0 -0 -0 -0 -0 -0 -0 -0 -0 -0 -0 -0 -0 -0 -0 -0 -0 -0 -0 -0 -0 -0 -0 -0 -0 -0 -0 -0 -128 -76 -54 -17 -7 -10 -32 -20 -33 -46 -52 -32 -63 -245 -264 -187
-0 -0 -0 -0 -0 -0 -0 -0 -0 -0 -0 -0 -0 -0 -0 -0 -0 -0 -0 -0 -0 -0 -0 -0 -0 -0 -0 -0 -0 -102 -0 -0 -27 -50 -70 -113 -52 -11 -7 -25 -98 -206 -233 -174 -170
-0 -0 -0 -0 -0 -0 -0 -0 -0 -0 -0 -0 -0 -0 -0 -0 -0 -0 -0 -0 -0 -0 -0 -0 -0 -0 -0 -0 -0 -110 -77 -0 -39 -56 -91 -116 -99 -34 -47 -33 -95 -166 -0 -214 -164
-0 -0 -0 -0 -0 -0 -0 -0 -0 -0 -0 -0 -0 -0 -0 -0 -0 -0 -0 -0 -0 -0 -0 -0 -0 -0 -0 -0 -0 -0 -0 -0 -71 -66 -86 -62 -95 -0 -83 -30 -106 -166 -152 -157 -160
-0 -0 -0 -0 -0 -0 -0 -0 -0 -0 -0 -0 -0 -0 -0 -0 -0 -0 -0 -0 -0 -0 -0 -0 -0 -0 -0 -0 -0 -0 -0 -0 -60 -84 -81 -64 -44 -34 -44 -21 -120 -144 -94 -115 -121
-0 -0 -0 -0 -0 -0 -0 -0 -0 -0 -0 -0 -0 -0 -0 -0 -0 -0 -0 -0 -0 -0 -0 -0 -0 -0 -0 -0 -0 -0 -0 -0 -0 -83 -37 -53 -74 -98 -25 -34 -91 -167 -148 -142 -127
-0 -0 -0 -0 -0 -0 -0 -0 -0 -0 -0 -0 -0 -0 -0 -0 -0 -0 -0 -0 -0 -0 -0 -0 -0 -0 -0 -0 -0 -0 -0 -0 -0 -110 -73 -43 -49 -39 -69 -89 -111 -162 -0 -153 -167
-0 -0 -0 -0 -0 -0 -0 -0 -0 -0 -0 -0 -0 -0 -0 -0 -0 -0 -0 -0 -0 -0 -0 -0 -0 -0 -0 -0 -0 -0 -0 -0 -123 -100 -58 -40 -34 -82 -122 -134 -118 -169 -173 -0 -177
-0 -0 -0 -0 -0 -0 -0 -0 -0 -0 -0 -0 -0 -0 -0 -0 -0 -0 -0 -0 -0 -0 -0 -0 -0 -0 -0 -0 -0 -0 -0 -0 -0 -71 -34 -45 -54 -103 -150 -155 -109 -147 -183 -169 -170
-0 -0 -0 -0 -0 -0 -0 -0 -0 -0 -0 -0 -0 -0 -0 -0 -0 -0 -0 -0 -0 -0 -0 -0 -0 -0 -0 -0 -0 -0 -0 -0 -0 -25 -59 -58 -21 -117 -147 -156 -145 -129 -175 -161 -162
-0 -0 -0 -0 -0 -0 -0 -0 -0 -0 -0 -0 -0 -0 -0 -0 -0 -0 -0 -0 -0 -0 -0 -0 -0 -0 -0 -0 -0 -0 -0 -0 -0 -0 -80 -0 -0 -0 -126 -133 -167 -153 -166 -164 -159
-0 -0 -0 -0 -0 -0 -0 -0 -0 -0 -0 -0 -0 -0 -0 -0 -0 -0 -0 -0 -0 -0 -0 -0 -0 -0 -0 -0 -0 -0 -0 -0 -0 -0 -0 -0 -0 -70 -143 -113 -124 -170 -184 -163 -143
-0 -0 -0 -0 -0 -0 -0 -0 -0 -0 -0 -0 -0 -0 -0 -0 -0 -0 -0 -0 -0 -0 -0 -0 -0 -0 -0 -0 -0 -0 -0 -0 -0 -0 -10 -41 -0 -227 -203 -144 -122 -140 -164 -174 -146
-0 -0 -0 -0 -0 -0 -0 -0 -0 -0 -0 -0 -0 -0 -0 -0 -0 -0 -0 -0 -0 -0 -0 -0 -0 -0 -0 -0 -0 -0 -0 -0 -0 -0 -0 -0 -0 -0 -182 -196 -141 -123 -168 -163 -143
-0 -0 -0 -0 -0 -0 -0 -0 -0 -0 -0 -0 -0 -0 -0 -0 -0 -0 -0 -0 -0 -0 -0 -0 -0 -0 -0 -0 -0 -0 -0 -0 -0 -0 -0 -0 -0 -0 -253 -159 -209 -150 -138 -170 -164
-0 -0 -0 -0 -0 -0 -0 -0 -0 -0 -0 -0 -0 -0 -0 -0 -0 -0 -0 -0 -0 -0 -0 -0 -0 -0 -0 -0 -0 -0 -0 -0 -0 -0 -0 -0 -0 -0 -0 -0 -106 -82 -128 -131 -168
-0 -0 -0 -0 -0 -0 -0 -0 -0 -0 -0 -0 -0 -0 -0 -0 -0 -0 -0 -0 -0 -0 -0 -0 -0 -0 -0 -0 -0 -0 -0 -0 -0 -0 -0 -0 -0 -0 -0 -0 -0 -0 -29 -164 -138
-0 -0 -0 -0 -0 -0 -0 -0 -0 -0 -0 -0 -0 -0 -0 -0 -0 -0 -0 -0 -0 -0 -0 -0 -0 -0 -0 -0 -0 -0 -0 -0 -0 -0 -0 -0 -0 -0 -0 -0 -0 -0 -0 -0 -290
-0 -0 -0 -0 -0 -0 -0 -0 -0 -0 -0 -0 -0 -0 -0 -0 -0 -0 -0 -0 -0 -0 -0 -0 -0 -0 -0 -0 -0 -0 -0 -0 -0 -0 -0 -0 -0 -0 -0 -0 -0 -0 -0 -0 -0
-0 -0 -0 -0 -0 -0 -0 -0 -0 -0 -0 -0 -0 -0 -0 -0 -0 -0 -0 -0 -0 -0 -0 -0 -0 -0 -0 -0 -0 -0 -0 -0 -0 -0 -0 -0 -0 -0 -0 -0 -0 -0 -0 -0 -0
-0 -0 -0 -0 -0 -0 -0 -0 -0 -0 -0 -0 -0 -0 -0 -0 -0 -0 -0 -0 -0 -0 -0 -0 -0 -0 -0 -0 -0 -0 -0 -0 -0 -0 -0 -0 -0 -0 -0 -0 -0 -0 -0 -0 -432
-0 -0 -0 -0 -0 -0 -0 -0 -0 -0 -0 -0 -0 -0 -0 -0 -0 -0 -0 -0 -0 -0 -0 -0 -0 -0 -0 -0 -0 -0 -0 -0 -0 -0 -0 -0 -0 -0 -0 -0 -0 -0 -0 -0 -0
-0 -0 -0 -0 -0 -0 -0 -0 -0 -0 -0 -0 -0 -0 -0 -0 -0 -0 -0 -0 -0 -0 -0 -0 -0 -0 -0 -0 -0 -0 -0 -0 -0 -0 -0 -0 -0 -0 -0 -0 -0 -0 -0 -0 -0
-0 -0 -0 -0 -0 -0 -0 -0 -0 -0 -0 -0 -0 -0 -0 -0 -0 -0 -0 -0 -0 -0 -0 -0 -0 -0 -0 -0 -0 -0 -0 -0 -0 -0 -0 -0 -0 -0 -0 -0 -0 -0 -0 -0 -0
-0 -0 -0 -0 -0 -0 -0 -0 -0 -0 -0 -0 -0 -0 -0 -0 -0 -0 -0 -0 -0 -0 -0 -0 -0 -0 -0 -0 -0 -0 -0 -0 -0 -0 -0 -0 -0 -0 -0 -0 -0 -0 -0 -0 -0
-0 -0 -0 -0 -0 -0 -0 -0 -0 -0 -0 -0 -0 -0 -0 -0 -0 -0 -0 -0 -0 -0 -0 -0 -0 -0 -0 -0 -0 -0 -0 -0 -0 -0 -0 -0 -0 -0 -0 -0 -0 -0 -0 -0 -0
-0 -0 -0 -0 -0 -0 -0 -0 -0 -0 -0 -0 -0 -0 -0 -0 -0 -0 -0 -0 -0 -0 -0 -0 -0 -0 -0 -0 -0 -0 -0 -0 -0 -0 -0 -0 -0 -0 -0 -0 -0 -0 -0 -0 -0
Wind_Speed
33 33 32 32 32 31 30 29 28 27 27 26 25 24 23 23 23 20 25 19 10 3 4 1 4 7 8 9 14 14 14 16 20 18 13 10 14 17 20 20 15 16 23 27 30
34 34 33 33 32 32 31 30 29 28 27 26 25 24 23 22 22 25 22 15 11 2 3 4 2 2 6 10 13 14 14 15 17 20 23 21 8 19 17 16 8 7 15 29 29
35 34 34 34 33 32 31 30 29 28 27 26 24 23 21 20 19 17 14 6 4 3 5 2 1 7 10 10 12 14 13 14 17 18 21 19 17 9 17 18 17 13 24 28 28
36 35 35 34 34 33 32 31 29 28 27 25 23 21 18 17 16 16 8 1 3 5 2 5 5 9 11 8 12 13 18 12 15 16 17 20 17 15 10 14 5 19 26 25 25
36 36 35 34 34 33 32 31 30 28 26 24 22 18 17 17 17 13 4 1 5 8 6 7 4 11 11 13 10 11 19 10 11 13 17 21 17 16 22 18 6 16 24 23 22
36 35 35 34 34 33 32 31 30 28 26 23 21 16 16 17 14 5 4 1 6 8 10 9 10 11 12 13 12 14 18 20 7 10 10 14 15 12 1 8 21 23 26 26 25
35 35 35 34 34 34 32 31 30 28 25 21 18 15 17 16 14 3 3 7 8 8 10 14 12 14 13 15 16 18 18 15 13 7 8 13 14 19 23 16 29 24 25 26 25
36 35 35 35 34 33 32 31 30 28 22 16 13 15 17 14 8 7 9 11 12 12 13 12 13 14 15 17 16 16 13 14 13 4 11 6 10 17 13 24 30 27 26 25 28
36 36 35 35 34 32 30 28 25 16 10 9 11 14 15 12 14 10 9 10 8 10 15 13 13 15 14 15 16 14 13 13 13 5 9 8 10 6 21 20 23 24 23 24 28
37 36 35 35 33 30 27 19 13 11 11 12 15 14 14 14 14 8 7 4 11 8 11 10 13 14 14 14 18 15 14 13 12 12 13 10 19 8 6 18 19 21 21 22 29
37 36 35 34 32 27 19 13 18 16 16 17 15 16 17 17 14 12 6 9 9 11 14 15 16 18 15 14 13 14 13 15 15 13 15 17 28 11 1 4 10 18 22 24 29
35 36 34 33 29 22 14 15 17 20 21 20 19 19 19 16 14 10 3 12 13 16 14 15 20 16 14 12 13 15 17 18 17 15 17 22 22 13 2 2 8 16 20 22 22
18 33 32 30 25 15 16 16 21 14 19 19 15 15 15 10 14 12 11 12 13 16 18 18 17 16 16 15 16 16 18 18 17 18 17 15 18 14 11 10 4 3 3 4 17
6 21 25 23 15 18 16 21 21 13 18 15 15 15 12 12 13 11 9 12 14 19 16 17 16 18 18 20 17 21 16 16 19 19 19 15 19 15 12 9 5 9 9 5 5
10 16 20 18 15 15 19 24 18 14 17 14 13 12 11 13 8 10 12 13 15 15 16 19 19 19 21 21 15 17 12 16 18 18 18 18 16 17 17 29 32 31 29 25 21
10 7 10 17 15 14 23 20 12 15 15 14 14 13 11 12 12 12 13 11 11 12 14 16 15 16 19 19 17 13 14 14 14 16 21 18 17 16 15 21 27 29 36 37 38
9 4 17 18 18 9 19 12 12 14 16 15 15 15 12 12 11 10 10 10 15 17 17 16 16 17 16 19 14 15 15 21 23 24 23 18 17 15 19 17 19 24 29 33 32
6 19 17 16 11 10 15 11 10 12 12 13 13 10 12 13 12 12 10 11 13 14 15 18 20 18 18 19 19 18 19 21 27 26 22 18 19 15 16 17 19 19 23 28 35
6 19 22 12 16 17 17 11 10 13 15 15 11 8 12 12 12 11 11 13 14 15 16 16 17 16 16 15 18 19 21 18 17 19 22 23 20 18 22 20 21 22 22 23 32
21 19 4 8 19 19 18 15 11 14 15 14 12 13 13 14 13 14 15 15 15 14 13 15 16 16 17 16 15 17 18 22 21 25 26 23 23 25 24 25 25 24 24 23 22
19 21 14 21 20 20 16 16 13 15 14 14 14 14 13 15 14 16 16 15 16 16 13 14 16 19 16 16 18 19 22 21 20 22 27 26 26 22 23 23 23 23 22 21 18
18 19 17 17 21 19 17 15 16 18 17 15 14 14 15 15 15 17 17 19 19 16 16 16 15 20 18 17 17 13 18 20 27 27 24 24 25 20 19 20 21 20 20 18 17
19 18 14 18 18 18 16 17 17 18 17 18 18 17 16 17 17 15 16 16 15 16 17 16 18 21 22 24 20 20 20 18 19 22 28 29 27 18 17 18 19 19 18 18 16
17 19 17 24 20 19 17 17 16 18 17 16 17 15 14 16 15 15 16 17 17 16 15 16 19 22 28 25 23 25 24 22 20 25 24 26 22 20 21 19 20 19 18 18 17
19 19 18 19 22 21 19 18 17 18 17 17 17 16 13 15 13 15 15 16 17 19 18 17 20 18 17 19 22 24 26 26 25 22 26 24 23 22 20 18 18 19 18 18 18
19 17 19 20 18 18 18 20 20 18 17 16 13 14 13 12 14 14 15 18 19 20 19 18 18 16 18 20 20 21 22 22 23 24 23 19 23 20 19 18 19 19 19 19 19
20 18 18 17 17 17 17 17 17 18 20 18 15 14 14 14 14 15 16 15 16 17 17 17 15 19 21 20 18 24 21 21 21 21 23 27 24 21 22 21 22 22 21 22 22
Wind_Direction
333 331 328 324 319 315 312 310 308 305 302 299 291 283 281 282 281 287 255 269 283 266 261 88 297 305 290 289 281 296 309 328 344 35 67 73 265 252 223 205 230 223 138 120 121
328 324 323 322 318 315 311 308 306 305 302 302 297 291 287 289 286 264 267 275 269 133 194 152 235 23 301 285 284 288 317 322 353 55 79 96 30 243 212 216 250 358 89 119 122
332 328 321 317 315 313 309 306 303 303 304 302 300 296 295 298 290 285 295 276 261 265 256 207 210 277 277 277 283 284 305 309 14 58 76 88 91 299 219 221 228 79 118 124 126
329 330 326 319 314 309 306 303 301 298 301 303 302 301 301 301 285 293 328 205 226 263 243 257 250 262 267 279 274 287 267 316 34 72 78 97 85 99 95 230 275 105 124 126 128
328 324 322 319 313 310 304 299 296 296 295 299 301 308 301 291 281 301 37 83 247 256 255 261 209 256 260 267 287 289 260 328 47 86 99 122 106 101 184 225 96 103 124 128 129
328 324 321 316 313 308 303 299 292 291 293 293 299 310 297 283 293 327 26 356 267 251 257 258 258 264 257 266 276 285 261 279 20 86 65 91 89 92 260 257 125 122 133 137 137
326 321 318 314 311 306 302 297 290 286 290 296 298 301 289 281 296 329 353 293 280 257 255 255 274 260 265 266 270 276 274 292 305 77 21 85 68 113 132 227 137 131 135 142 143
323 318 318 313 308 305 299 296 288 282 293 305 311 298 283 292 319 296 286 288 282 263 265 259 269 265 266 271 273 276 287 285 294 9 294 47 325 111 84 130 154 145 144 142 151
326 320 316 312 307 304 300 297 297 308 318 331 317 298 281 298 285 285 277 278 291 268 257 263 265 264 274 267 265 275 271 285 289 311 310 291 317 44 154 135 143 146 144 147 154
325 317 316 315 314 306 304 310 337 344 324 311 299 291 284 284 284 301 275 303 274 259 263 257 262 263 268 266 254 259 268 283 290 270 280 284 266 345 262 136 135 139 143 147 158
324 315 313 311 313 311 328 339 303 303 298 284 286 287 279 284 285 278 281 265 274 257 253 251 254 250 257 267 269 267 273 271 277 281 273 277 241 296 358 74 107 130 144 150 160
341 321 312 310 308 314 345 330 317 293 284 282 277 273 274 285 280 274 264 268 258 250 254 252 250 256 267 266 269 269 267 267 277 280 276 265 269 292 218 287 130 138 143 152 151
12 310 314 312 309 344 327 322 306 307 285 279 277 275 280 287 280 269 263 272 253 252 251 247 258 259 261 264 266 271 265 263 268 281 283 286 276 289 277 272 281 150 203 161 154
339 285 296 290 6 335 326 313 302 304 280 278 269 274 281 283 286 280 262 270 267 250 253 257 268 256 260 262 268 263 264 263 269 271 268 279 267 286 284 154 168 275 265 232 212
283 275 286 11 24 9 321 298 301 300 266 272 266 278 278 278 270 277 283 279 260 254 258 259 256 261 257 259 266 264 263 265 271 270 271 269 274 277 271 231 196 196 242 250 253
279 245 77 43 41 38 299 295 299 275 267 275 272 263 266 276 276 282 281 286 281 268 265 265 273 270 264 265 260 272 269 269 272 270 263 267 266 278 283 271 264 256 240 231 216
282 173 77 64 36 83 304 312 289 271 280 276 271 269 258 271 277 286 284 272 267 256 256 267 269 274 277 260 268 260 257 255 255 256 259 263 265 272 281 289 287 274 266 210 205
278 71 87 84 116 202 335 325 292 285 281 291 286 268 260 270 274 280 279 274 293 274 263 257 255 274 280 264 260 259 255 256 254 250 251 263 260 262 300 296 300 298 281 255 209
114 79 61 99 85 98 38 357 295 278 281 283 279 272 270 273 270 279 289 279 292 285 266 262 264 276 286 290 264 258 255 264 266 266 252 257 265 262 293 297 303 303 303 280 238
64 70 29 124 89 67 41 41 298 278 279 290 274 282 266 271 269 274 276 286 283 304 285 277 259 284 281 281 289 265 266 254 259 252 253 259 259 263 284 291 295 303 306 303 275
62 55 74 54 66 17 24 50 345 292 295 292 284 278 277 275 280 274 275 286 288 286 309 284 275 272 279 282 278 265 260 263 260 262 254 254 260 282 284 294 296 299 310 312 310
63 49 54 51 12 24 18 6 348 299 301 299 299 301 287 285 280 278 275 280 289 289 284 291 281 269 269 276 284 297 273 264 253 254 261 261 263 291 293 298 301 305 310 319 319
62 69 70 36 43 16 7 2 358 333 315 296 290 296 296 287 282 280 283 295 303 291 285 286 278 266 266 270 278 273 281 278 268 263 258 257 259 289 296 303 309 309 316 321 320
76 60 83 66 80 59 20 349 347 338 343 340 305 311 302 292 292 280 279 291 296 302 306 298 283 274 266 269 272 267 271 275 270 261 258 261 260 274 284 294 303 311 314 323 329
67 72 82 72 57 59 52 22 2 338 338 331 323 311 307 298 298 289 285 287 295 299 298 294 280 282 282 279 276 271 269 268 265 267 264 261 261 272 282 295 303 307 312 316 322
54 81 79 75 81 93 77 48 50 19 355 344 347 337 331 310 303 294 295 291 288 292 295 295 279 281 279 283 280 275 275 270 269 268 269 264 266 281 284 292 301 307 308 309 312
35 31 57 72 82 83 92 93 92 83 63 48 19 344 332 323 318 309 308 309 301 297 296 293 282 278 273 283 276 271 276 276 273 278 271 262 271 279 282 286 291 298 303 303 304